SCOUT A DEB

Satellite information

Favourite Embed

Satellite Type and Status

DEBRISIN ORBIT

Key statistics

Satellite SCOUT A DEB at a glance.

Uptime

21758

Days in orbit

Revolutions

≈ 14.3

Per day

Orbit

SSO

Sun Synchronous Orbit

Inclination

90.2

Latest

Satellite identification and parameters

Extended collection of information and parameters for SCOUT A DEB.

Object identification

Identified? True

Debris? True

Object name: SCOUT A DEB

International designator: 1966-041H

Object number (NORAD): 31407

Object ID (CCSDS): 31407

Country: UNITED STATES OF AMERICA (US)

Current information (Y/N): Y

RCS size: SMALL

Orbital parameters

Period: 100.577 minutes

Inclination: 90.2032 deg

SMA: 7164.058 km

Apoapsis: 826.535 km

Periapsis: 745.311 km

RAAN: 70.4978 deg

Eccentricy: 0.00566889

Argument of periapsis: 161.4879 deg

Mean anomaly: 198.8398 deg

Mean motion: 14.31739825 rev/day

Mean motion (dot): 0.00004999 rev/day2

B* drag term: 0.0018364858 1/REarth

Two-line elements (TLE)

Creation date: Dec. 8, 2025, 11:02 a.m.

Reference frame: TEME

Reference center: EARTH

Epoch: Dec. 7, 2025, 11:38 p.m. UTC

TLE line 0: 0 SCOUT A DEB

TLE line 1: 1 31407U 66041H 25341.98520911 .00004999 00000-0 18365-2 0 9998

TLE line 2: 2 31407 90.2032 70.4978 0056689 161.4879 198.8398 14.31739825472796

Live tracking on map

Real-time ground track for satellite SCOUT A DEB.

In-orbit conjunctions

A list of the most updated potential collisions computed for object SCOUT A DEB.

Target Orbit TCA Probability of collision Miss distance Type
WEOS SSO 2025-03-03 17:12:05 0.001306435 514.0 (m) PAYLOAD
CZ-6A DEB LEO 2024-12-18 15:28:26 0.0003741873 268.0 (m) DEBRIS
CZ-2D R/B SSO 2024-07-23 17:23:33 0.0001215704 115.0 (m) ROCKET BODY

Associated space launch

The Transit-O series of satellites that closely followed the design of Transit 5C-1 were also called “Oscars” (Oscar is the phonetic alphabet for “O”, i. e., operational). They were also called NNS (Navy Navigation Satellite) or shortened NavSat.

SCOUT A DEB was lifted into orbit during the mission ‘Scout A | Transit-O 9’, on board a Scout A space rocket.

The launch took place on May 19, 1966, 2:27 a.m. from Space Launch Complex 5.

For more information about the launch, click the button.

Launch to space Scout A | Transit-O 9
Scout A | Transit-O 9

Agency: N/A

Status: Launch Successful

Launch date: May 19, 1966, 2:27 a.m. UTC

Rocket: Scout A

Launch pad: Space Launch Complex 5

Location: Vandenberg SFB, CA, USA

...

Latest news about this satellite

There are no fresh news available about this satellite. Check back as we update our databases every day.


Newsletter sign-up

Weekly statistics, charts and insights to help you stay on top of the space industry.